Vorticity
nan nan nan nan nan nan nan nan nan nan nan nan nan nan nan nan nan nan nan nan nan nan nan nan nan nan nan nan nan nan nan nan
nan 7 7 7 8 8 7 7 8 7 7 6 7 7 6 6 6 6 6 5 5 6 6 7 6 6 6 7 7 6 5 nan
nan 7 7 7 8 9 9 8 6 7 8 6 4 6 9 8 8 7 7 6 6 6 6 6 7 7 7 7 5 4 6 nan
nan 7 7 7 7 8 7 7 8 9 9 8 7 6 8 9 10 10 8 7 8 7 7 6 4 5 9 7 6 7 7 nan
nan 7 8 7 7 6 7 8 8 9 10 8 7 7 6 7 8 9 11 9 7 9 7 8 7 6 7 7 7 6 6 nan
nan 9 9 4 7 9 8 7 7 7 8 8 6 7 7 7 7 8 7 10 8 7 7 8 7 7 7 7 6 5 6 nan
nan 10 9 11 10 11 11 9 6 7 8 7 6 7 7 7 7 7 7 8 8 7 7 7 7 7 7 7 7 7 5 nan
nan 7 9 13 8 10 9 9 10 10 9 9 6 6 7 6 7 7 7 7 8 8 7 7 7 8 7 8 7 7 8 nan
nan 5 7 8 8 8 9 10 9 9 9 11 9 6 7 6 7 8 7 8 8 7 7 8 7 9 9 7 9 9 8 nan
nan 7 8 6 8 9 9 9 9 9 11 11 10 12 8 6 7 7 9 8 8 8 7 8 8 7 8 8 9 10 9 nan
nan 5 7 8 9 8 7 9 10 9 9 9 11 13 13 9 7 8 8 8 9 8 7 8 8 7 8 8 9 8 8 nan
nan 7 6 9 9 9 9 7 6 8 7 7 10 10 11 13 12 10 8 8 6 9 9 8 8 10 10 8 8 8 8 nan
nan 7 8 9 8 9 9 6 8 7 7 6 8 9 9 12 13 11 9 10 10 7 6 6 8 9 5 6 10 11 10 nan
nan 7 8 9 10 10 8 8 9 7 7 6 8 7 7 8 8 11 12 10 9 9 8 4 6 9 6 6 7 8 11 nan
nan 6 8 8 10 10 9 11 8 6 5 7 6 6 8 8 8 8 9 13 12 9 11 8 7 4 8 13 9 7 6 nan
nan 8 9 7 8 9 10 10 8 7 7 6 5 7 9 9 9 9 9 9 12 11 11 13 12 7 6 5 3 12 8 nan
nan 6 8 8 9 9 9 8 8 8 8 8 10 11 10 8 9 9 9 7 12 13 10 9 6 6 6 9 13 4 4 nan
nan 7 6 8 10 9 7 8 10 10 9 11 9 9 9 9 10 10 10 8 9 14 14 8 5 4 6 7 10 8 4 nan
nan 7 7 9 8 8 8 10 11 10 10 8 9 11 9 8 10 10 8 8 9 14 13 10 8 9 8 7 6 5 9 nan
nan nan nan nan nan nan nan nan nan nan nan nan nan nan nan nan nan nan nan nan nan nan nan nan nan nan nan nan nan nan nan nan
CAPE
1382 1421 1510 1505 1591 1726 1877 1952 1940 1904 1947 2090 2209 2064 1926 1870 1877 1934 2013 2178 2368 2296 2116 2069 1912 1644 1389 1375 1159 1030 528 478
1345 1322 1360 1316 1297 1475 1728 1881 1900 1863 1849 1949 2050 1953 1851 1808 1747 1833 1956 2030 2258 2190 2009 2017 1640 1276 1206 1194 1132 934 467 440
1367 1339 1227 1096 1110 1212 1454 1791 1855 1824 1801 1815 1759 1861 1807 1790 1654 1646 1810 1857 1947 2031 1941 1815 1587 1181 1056 1036 973 667 613 493
1870 1548 1347 1107 1361 1184 1122 1417 1566 1683 1841 1791 1790 1753 1732 1909 1755 1569 1618 1632 1641 1758 1786 1616 1316 967 792 866 602 605 632 527
2017 1994 1589 1393 1641 993 894 951 974 1176 1501 1456 1611 1434 1736 1755 1641 1449 1248 1362 1359 1410 1384 1224 1070 848 616 555 512 534 518 531
1795 1683 1791 1710 1605 1233 941 911 783 904 1009 1234 1372 1502 1690 1847 1743 1469 1232 1293 1359 1375 1361 1197 996 866 742 622 550 520 474 449
871 784 389 765 1634 1673 1683 1275 985 903 870 1051 1334 1522 1563 1759 1811 1519 1367 1290 1344 1268 1201 1090 1040 986 985 854 730 623 607 459
0 0 0 0 0 0 90 739 1023 979 1076 980 1224 1246 1359 1414 1693 1606 1491 1407 1300 1272 1147 1126 1099 1070 1012 839 910 775 662 525
0 0 0 0 0 0 0 0 0 149 984 996 1133 1363 1305 1354 1284 1357 1680 1567 1382 1296 1134 1023 1063 985 1024 856 758 734 604 397
0 0 0 0 0 0 0 0 0 0 0 4 668 1395 1488 1118 1265 1192 1092 1573 1471 1414 1276 1032 1089 1038 985 708 563 544 512 338
0 0 0 0 0 0 0 0 0 0 0 0 0 207 904 1150 1128 898 698 893 1184 1408 1345 1100 995 910 924 507 505 509 469 366
0 0 0 0 0 0 0 0 0 0 0 0 0 0 0 463 942 1046 725 484 699 899 1297 1075 1005 966 882 611 462 439 386 410
0 0 0 0 0 0 0 0 0 0 0 0 0 0 0 0 134 918 748 842 883 650 723 656 647 723 382 175 90 323 405 379
0 0 0 0 0 0 0 0 0 0 0 0 0 0 0 0 0 0 854 996 764 438 730 712 774 492 820 672 333 258 174 244
0 0 0 0 0 0 0 0 0 0 0 0 0 0 0 0 0 0 0 387 1143 1000 416 613 562 246 10 70 30 250 86 11
0 0 0 0 0 0 0 0 0 0 0 0 0 0 0 0 0 0 0 0 222 948 442 432 84 0 1 1 3 5 5 11
0 0 0 0 0 0 0 0 0 0 0 0 0 0 0 0 0 0 0 0 0 695 334 0 0 0 0 0 0 14 0 0
0 0 0 0 0 0 1 0 0 1 1 2 2 3 0 0 1 1 2 2 0 253 341 25 0 0 0 0 53 196 5 0
0 0 0 0 0 0 0 0 3 5 5 6 6 4 4 5 5 7 2 2 3 26 19 0 0 0 0 0 19 38 108 122
0 0 0 0 0 0 1 1 5 6 6 6 6 7 8 9 7 11 9 4 3 4 216 56 0 102 194 49 29 174 246 200